When you browse on this site, cookies collect data to enhance your experience and personalize the content and advertising you see.
Visit our Privacy Policy to learn more. By continuing to use the site, you agree to this use of cookies and data.
  • In Spain
  • List of Countries
  • For 7 days
  • Water Temperature
  • Weather Map
  • Weather Widgets
  • user-avatar
    Login

    Hourly Weather Turin

    Today, 21 November, Thursday

    Time Temperature Precipitation Wind Pressure Humidity
    00:00 +9°C° 0.2 mm 0 mps 736 mmHg 91%
    01:00 +9°C° 0.2 mm 0 mps 736 mmHg 92%
    02:00 +9°C° 0.5 mm 0 mps 736 mmHg 93%
    03:00 +9°C° 0.5 mm 0 mps 735 mmHg 94%
    04:00 +9°C° 0.5 mm 1 mps 735 mmHg 95%
    05:00 +9°C° 0.3 mm 1 mps 735 mmHg 95%
    06:00 +9°C° 0.3 mm 1 mps 735 mmHg 95%
    07:00 +9°C° 0.3 mm 1 mps 735 mmHg 96%
    08:00 +10°C° 0.4 mm 1 mps 735 mmHg 94%
    09:00 +10°C° 0.4 mm 1 mps 735 mmHg 93%
    10:00 +10°C° 0.4 mm 1 mps 735 mmHg 91%
    11:00 +10°C° 0.3 mm 1 mps 735 mmHg 87%
    12:00 +11°C° 0.3 mm 1 mps 735 mmHg 83%
    13:00 +11°C° 0.3 mm 1 mps 735 mmHg 79%
    14:00 +11°C° 0.1 mm 1 mps 735 mmHg 80%
    15:00 +11°C° 0.1 mm 1 mps 735 mmHg 81%
    16:00 +11°C° 0.1 mm 1 mps 735 mmHg 82%
    17:00 +10°C° 0.1 mm 1 mps 735 mmHg 82%
    18:00 +10°C° 0.1 mm 1 mps 735 mmHg 83%
    19:00 +9°C° 0.1 mm 1 mps 735 mmHg 83%
    20:00 +9°C° 0.5 mm 1 mps 736 mmHg 85%
    21:00 +9°C° 0.5 mm 1 mps 736 mmHg 87%
    22:00 +9°C° 0.5 mm 1 mps 736 mmHg 89%
    23:00 +9°C° 1.2 mm 1 mps 736 mmHg 90%

    Tomorrow, 22 November, Friday

    Time Temperature Precipitation Wind Pressure Humidity
    00:00 +9°C° 1.2 mm 1 mps 736 mmHg 92%
    01:00 +8°C° 1.2 mm 2 mps 736 mmHg 93%
    02:00 +9°C° 1.3 mm 1 mps 735 mmHg 93%
    03:00 +9°C° 1.3 mm 1 mps 735 mmHg 94%
    04:00 +9°C° 1.3 mm 1 mps 735 mmHg 94%
    05:00 +9°C° 0.8 mm 1 mps 735 mmHg 94%
    06:00 +9°C° 0.8 mm 1 mps 735 mmHg 95%
    07:00 +9°C° 0.8 mm 1 mps 735 mmHg 95%
    08:00 +9°C° 0.6 mm 1 mps 735 mmHg 95%
    09:00 +9°C° 0.6 mm 1 mps 735 mmHg 95%
    10:00 +9°C° 0.6 mm 1 mps 736 mmHg 95%
    11:00 +9°C° 0.4 mm 1 mps 735 mmHg 95%
    12:00 +9°C° 0.4 mm 1 mps 735 mmHg 94%
    13:00 +9°C° 0.4 mm 1 mps 735 mmHg 94%
    14:00 +9°C° 0.3 mm 1 mps 734 mmHg 94%
    15:00 +9°C° 0.3 mm 1 mps 734 mmHg 95%
    16:00 +9°C° 0.3 mm 1 mps 734 mmHg 95%
    17:00 +8°C° 0.7 mm 2 mps 734 mmHg 95%
    18:00 +8°C° 0.7 mm 2 mps 734 mmHg 96%
    19:00 +8°C° 0.7 mm 2 mps 734 mmHg 96%
    20:00 +8°C° 1 mm 2 mps 734 mmHg 95%
    21:00 +8°C° 1 mm 2 mps 734 mmHg 95%
    22:00 +8°C° 1 mm 2 mps 734 mmHg 95%
    23:00 +8°C° 1.8 mm 2 mps 733 mmHg 95%

    Day after tomorrow, 23 November, Saturday

    Time Temperature Precipitation Wind Pressure Humidity
    00:00 +8°C° 1.8 mm 2 mps 733 mmHg 95%
    01:00 +8°C° 1.8 mm 2 mps 733 mmHg 96%
    02:00 +8°C° 2.5 mm 2 mps 732 mmHg 96%
    03:00 +8°C° 2.5 mm 2 mps 732 mmHg 96%
    04:00 +8°C° 2.5 mm 2 mps 731 mmHg 96%
    05:00 +8°C° 2.6 mm 2 mps 731 mmHg 96%
    06:00 +8°C° 2.6 mm 3 mps 731 mmHg 96%
    07:00 +8°C° 2.6 mm 3 mps 731 mmHg 95%
    08:00 +8°C° 2.9 mm 3 mps 730 mmHg 95%
    09:00 +8°C° 2.9 mm 3 mps 730 mmHg 95%
    10:00 +8°C° 2.9 mm 3 mps 730 mmHg 96%
    11:00 +8°C° 3.3 mm 3 mps 730 mmHg 95%
    12:00 +8°C° 3.3 mm 3 mps 730 mmHg 95%
    13:00 +8°C° 3.3 mm 3 mps 730 mmHg 94%
    14:00 +9°C° 2.5 mm 3 mps 730 mmHg 95%
    15:00 +9°C° 2.5 mm 3 mps 730 mmHg 95%
    16:00 +9°C° 2.5 mm 3 mps 730 mmHg 95%
    17:00 +9°C° 3.6 mm 3 mps 730 mmHg 95%
    18:00 +9°C° 3.6 mm 3 mps 730 mmHg 96%
    19:00 +8°C° 3.6 mm 4 mps 731 mmHg 96%
    20:00 +8°C° 4.5 mm 4 mps 731 mmHg 96%
    21:00 +10°C° 4.5 mm 4 mps 732 mmHg 96%
    22:00 +10°C° 4.5 mm 4 mps 732 mmHg 96%
    23:00 +10°C° 3.9 mm 4 mps 732 mmHg 95%

    24 November, Sunday

    Time Temperature Precipitation Wind Pressure Humidity
    00:00 +10°C° 3.9 mm 4 mps 733 mmHg 95%
    01:00 +10°C° 3.9 mm 4 mps 733 mmHg 94%
    02:00 +10°C° 3.6 mm 4 mps 733 mmHg 94%
    03:00 +10°C° 3.6 mm 4 mps 733 mmHg 94%
    04:00 +10°C° 3.6 mm 4 mps 733 mmHg 94%
    05:00 +10°C° 3.3 mm 4 mps 734 mmHg 94%
    06:00 +10°C° 3.3 mm 3 mps 734 mmHg 94%
    07:00 +10°C° 3.3 mm 3 mps 735 mmHg 94%
    08:00 +10°C° 2 mm 3 mps 735 mmHg 94%
    09:00 +10°C° 2 mm 3 mps 736 mmHg 93%
    10:00 +10°C° 2 mm 2 mps 736 mmHg 93%
    11:00 +10°C° 0.6 mm 2 mps 737 mmHg 91%
    12:00 +12°C° 0.6 mm 2 mps 737 mmHg 89%
    13:00 +12°C° 0.6 mm 2 mps 737 mmHg 87%
    14:00 +12°C° 0.1 mm 2 mps 737 mmHg 85%
    15:00 +12°C° 0.1 mm 2 mps 737 mmHg 84%
    16:00 +13°C° 0.1 mm 2 mps 737 mmHg 82%
    17:00 +12°C° 0 mm 2 mps 737 mmHg 81%
    18:00 +10°C° 0 mm 2 mps 738 mmHg 80%
    19:00 +11°C° 0 mm 1 mps 738 mmHg 80%
    20:00 +10°C° 0 mm 1 mps 738 mmHg 79%
    21:00 +10°C° 0 mm 1 mps 739 mmHg 78%
    22:00 +10°C° 0 mm 1 mps 739 mmHg 78%
    23:00 +10°C° 0 mm 1 mps 739 mmHg 78%

    25 November, Monday

    Time Temperature Precipitation Wind Pressure Humidity
    00:00 +10°C° 0 mm 1 mps 738 mmHg 77%
    01:00 +10°C° 0 mm 1 mps 738 mmHg 77%
    02:00 +9°C° 0 mm 1 mps 738 mmHg 77%
    03:00 +9°C° 0 mm 1 mps 738 mmHg 76%
    04:00 +9°C° 0 mm 1 mps 738 mmHg 76%
    05:00 +9°C° 0 mm 1 mps 738 mmHg 76%
    06:00 +9°C° 0 mm 1 mps 738 mmHg 75%
    07:00 +9°C° 0 mm 1 mps 738 mmHg 75%
    08:00 +10°C° 0 mm 1 mps 738 mmHg 74%
    09:00 +10°C° 0 mm 0 mps 738 mmHg 73%
    10:00 +11°C° 0 mm 0 mps 738 mmHg 72%
    11:00 +12°C° 0 mm 0 mps 738 mmHg 70%
    12:00 +12°C° 0 mm 0 mps 738 mmHg 68%
    13:00 +13°C° 0 mm 0 mps 738 mmHg 67%
    14:00 +13°C° 0 mm 0 mps 738 mmHg 69%
    15:00 +12°C° 0 mm 0 mps 737 mmHg 72%
    16:00 +12°C° 0 mm 0 mps 737 mmHg 74%
    17:00 +11°C° 0 mm 0 mps 737 mmHg 74%
    18:00 +11°C° 0 mm 1 mps 738 mmHg 74%
    19:00 +11°C° 0 mm 1 mps 738 mmHg 74%
    20:00 +11°C° 0 mm 1 mps 738 mmHg 74%
    21:00 +10°C° 0 mm 1 mps 738 mmHg 73%
    22:00 +10°C° 0 mm 1 mps 738 mmHg 73%
    23:00 +10°C° 0 mm 1 mps 738 mmHg 73%

    26 November, Tuesday

    Time Temperature Precipitation Wind Pressure Humidity
    00:00 +10°C° 0 mm 1 mps 738 mmHg 73%
    01:00 +9°C° 0 mm 1 mps 738 mmHg 73%
    02:00 +9°C° 0 mm 1 mps 738 mmHg 73%
    03:00 +9°C° 0 mm 1 mps 738 mmHg 72%
    04:00 +9°C° 0 mm 1 mps 738 mmHg 72%
    05:00 +9°C° 0 mm 1 mps 738 mmHg 71%
    06:00 +9°C° 0 mm 1 mps 738 mmHg 71%
    07:00 +8°C° 0 mm 0 mps 738 mmHg 71%
    08:00 +9°C° 0 mm 0 mps 738 mmHg 70%
    09:00 +9°C° 0 mm 0 mps 738 mmHg 70%
    10:00 +10°C° 0 mm 0 mps 738 mmHg 69%
    11:00 +11°C° 0 mm 0 mps 738 mmHg 68%
    12:00 +12°C° 0 mm 0 mps 737 mmHg 66%
    13:00 +13°C° 0 mm 0 mps 737 mmHg 65%
    14:00 +12°C° 0 mm 0 mps 737 mmHg 68%
    15:00 +12°C° 0 mm 0 mps 737 mmHg 71%
    16:00 +11°C° 0 mm 0 mps 737 mmHg 75%
    17:00 +10°C° 0 mm 0 mps 737 mmHg 76%
    18:00 +9°C° 0 mm 0 mps 738 mmHg 77%
    19:00 +9°C° 0 mm 0 mps 738 mmHg 78%
    20:00 +8°C° 0 mm 0 mps 738 mmHg 78%
    21:00 +9°C° 0 mm 1 mps 738 mmHg 78%
    22:00 +9°C° 0 mm 1 mps 739 mmHg 78%
    23:00 +9°C° 0 mm 1 mps 738 mmHg 78%
    Show more